This demonstration page uses our WeatherBlox Daily Observations layout. Learn more.

Left ArrowRight Arrow

39.92423, -83.80882

Hourly Observations for January 2, 2021

Temp ( °F °C ) Dew Point ( °F °C ) Humidity (%) Winds ( mph kmh ) Pressure ( in mb ) Visibility ( mi km ) Precip ( " mm )
12:56 am 00:56 Cloudy 44 6.7 43 6.1 96 96 WSW 16 26 29.84 1010 10 16.0934 0.03 0.762
1:11 am 01:11 Cloudy 45 7 43 6 93 93 WSW 15 24 29.84 1011 10 16.0934 0.01 0.254
1:56 am 01:56 Cloudy with Light Rain 42 5.6 42 5.6 100 100 W 20 31 29.87 1012 7 11.26538 0.03 0.762
2:32 am 02:32 Cloudy 43 6 41 5 93 93 W 17 28 29.91 1013 10 16.0934 0.02 0.508
2:53 am 02:53 Cloudy 41 5 41 5 100 100 W 21 33 29.92 1013 10 16.0934 0.03 0.762
2:56 am 02:56 Cloudy 41 5 41 5 100 100 W 17 28 29.92 1013 10 16.0934 0.03 0.762
3:04 am 03:04 Cloudy 39 4 39 4 100 100 W 18 30 29.94 1014 10 16.0934 0.01 0.254
3:56 am 03:56 Cloudy 39 3.9 39 3.9 100 100 W 14 22 29.95 1014 10 16.0934 0.02 0.508
4:42 am 04:42 Cloudy 37 3 37 3 100 100 W 17 28 29.99 1016 10 16.0934 0.01 0.254
4:56 am 04:56 Cloudy 37 2.8 37 2.8 100 100 WNW 12 19 29.99 1016 10 16.0934 0.01 0.254
5:56 am 05:56 Cloudy 36 2.2 35 1.7 97 97 W 16 26 30.02 1017 10 16.0934 0.01 0.254
6:56 am 06:56 Cloudy 35 1.7 35 1.7 100 100 W 9 15 30.05 1018 10 16.0934 0.01 0.254
7:56 am 07:56 Cloudy 35 1.7 34 1.1 96 96 WSW 12 19 30.08 1019 10 16.0934 0.01 0.254
8:56 am 08:56 Cloudy with Light Wintry Mix 34 1.1 34 1.1 100 100 WNW 7 11 30.09 1019 4 6.43736 0.02 0.508
9:37 am 09:37 Cloudy with Mist and Fog 34 1 34 1 100 100 W 7 11 30.13 1020 6 9.65604 0.01 0.254
9:51 am 09:51 Cloudy 36 2 36 2 100 100 W 7 11 30.13 1020 10 16.0934 0.01 0.254
9:56 am 09:56 Cloudy 35 1.7 35 1.7 100 100 W 6 9 30.1 1019 10 16.0934 0.01 0.254
10:56 am 10:56 Cloudy 36 2.2 34 1.1 93 93 W 3 6 30.09 1019 10 16.0934 0.01 0.254
11:56 am 11:56 Cloudy 36 2.2 34 1.1 93 93 NW 3 6 30.08 1019 10 16.0934 0.01 0.254
12:33 pm 12:33 Cloudy 36 2 34 1 93 93 Calm 30.08 1019 10 16.0934 0.01 0.254
12:56 pm 12:56 Cloudy 36 2.2 34 1.1 93 93 S 3 6 30.07 1018 10 16.0934 0.01 0.254
1:56 pm 13:56 Cloudy 36 2.2 35 1.7 97 97 S 3 6 30.07 1018 10 16.0934 0 0
2:30 pm 14:30 Cloudy 36 2 36 2 100 100 S 5 7 30.09 1019 10 16.0934 0.01 0.254
2:56 pm 14:56 Cloudy 36 2.2 35 1.7 97 97 S 6 9 30.09 1019 10 16.0934 0.01 0.254
3:38 pm 15:38 Cloudy 36 2 36 2 100 100 Calm 30.09 1019 10 16.0934 0 0
3:56 pm 15:56 Cloudy 36 2.2 35 1.7 97 97 E 5 7 30.06 1018 10 16.0934 0.01 0.254
4:56 pm 16:56 Cloudy 36 2.2 35 1.7 97 97 E 3 6 30.06 1018 10 16.0934 0 0
5:28 pm 17:28 Cloudy 36 2 36 2 100 100 E 8 13 30.06 1018 10 16.0934 0 0
5:56 pm 17:56 Cloudy 36 2.2 36 2.2 100 100 E 8 13 30.04 1017 10 16.0934 0.01 0.254
6:56 pm 18:56 Cloudy 36 2.2 36 2.2 100 100 SE 5 7 30.06 1018 10 16.0934 0 0
7:27 pm 19:27 Cloudy 37 3 36 2 93 93 ESE 7 11 30.05 1018 10 16.0934 0 0
7:56 pm 19:56 Cloudy 37 2.8 36 2.2 96 96 ESE 6 9 30.04 1017 10 16.0934 0.01 0.254
8:56 pm 20:56 Cloudy 37 2.8 36 2.2 96 96 E 6 9 30.02 1017 10 16.0934 0 0
9:56 pm 21:56 Cloudy 36 2.2 36 2.2 100 100 ENE 3 6 30 1016 10 16.0934 0.01 0.254
10:56 pm 22:56 Cloudy with Mist and Fog 36 2.2 36 2.2 100 100 NE 3 6 29.99 1016 5 8.0467 0 0
11:56 pm 23:56 Cloudy with Mist and Fog 36 2.2 36 2.2 100 100 ENE 5 7 29.96 1015 4 6.43736 0.01 0.254

Powered by AerisWeather